This is the latest recevied weather packets stored in our database for station/object SR5NLK-1. If no packets are shown the sender has not sent any weather packets the latest 1 day(s).
| Time | Temp. | Humidity | Pressure | Rain* | Wind** | Luminosity | Snow |
|---|---|---|---|---|---|---|---|
| 1777975232 | 32.22° C | 31% | 1067.9 hPa | 0 mm | 0.89 m/s, 135° | - | - |
| 1777975053 | 31.67° C | 31% | 1015.2 hPa | 0 mm | 1.34 m/s, 202° | - | - |
| 1777974753 | 31.67° C | 31% | 949.7 hPa | 0 mm | 1.79 m/s, 180° | - | - |
| 1777974453 | 31.11° C | 32% | 959.1 hPa | 0 mm | 2.24 m/s, 202° | - | - |
| 1777974153 | 31.11° C | 32% | 999.2 hPa | 0 mm | 0 m/s | - | - |
| 1777973853 | 31.11° C | 32% | 1044.4 hPa | 0 mm | 0.89 m/s, 225° | - | - |
| 1777973553 | 31.67° C | 31% | 1014.8 hPa | 0 mm | 0.89 m/s, 337° | - | - |
| 1777973252 | 31.67° C | 32% | 1072.1 hPa | 0 mm | 1.79 m/s, 247° | - | - |
| 1777972953 | 31.67° C | 32% | 1056.7 hPa | 0 mm | 1.34 m/s, 157° | - | - |
| 1777972653 | 31.67° C | 31% | 962.3 hPa | 0 mm | 1.34 m/s, 202° | - | - |
| 1777972353 | 31.67° C | 31% | 1087.8 hPa | 0 mm | 1.79 m/s, 157° | - | - |
| 1777972053 | 32.22° C | 30% | 1053.4 hPa | 0 mm | 2.68 m/s, 157° | - | - |
| 1777971753 | 32.22° C | 29% | 1021.2 hPa | 0 mm | 0.89 m/s, 135° | - | - |
| 1777971453 | 32.78° C | 30% | 1094 hPa | 0 mm | 1.79 m/s, 157° | - | - |
| 1777971272 | 32.78° C | 30% | 1046.1 hPa | 0 mm | 2.68 m/s, 157° | - | - |
| 1777971153 | 32.78° C | 30% | 956 hPa | 0 mm | 1.34 m/s, 135° | - | - |
| 1777970853 | 32.78° C | 30% | 1076 hPa | 0 mm | 1.79 m/s, 135° | - | - |
| 1777970553 | 32.78° C | 30% | 1090.9 hPa | 0 mm | 0.45 m/s, 0° | - | - |
| 1777970253 | 32.78° C | 31% | 1041.9 hPa | 0 mm | 0 m/s | - | - |
| 1777969953 | 32.78° C | 31% | 1090.9 hPa | 0 mm | 0.89 m/s, 135° | - | - |
| 1777969653 | 32.22° C | 31% | 997.4 hPa | 0 mm | 0.45 m/s, 135° | - | - |
| 1777969353 | 32.22° C | 32% | 920.7 hPa | 0 mm | 1.34 m/s, 157° | - | - |
| 1777969292 | 32.22° C | 32% | 1056.4 hPa | 0 mm | 0.45 m/s, 180° | - | - |
| 1777969053 | 32.22° C | 31% | 1101.1 hPa | 0 mm | 0.45 m/s, 0° | - | - |
| 1777968753 | 32.78° C | 31% | 987 hPa | 0 mm | 0.89 m/s, 157° | - | - |
* Rain latest hour (hover to see other rain measurements)
** Current wind speed in m/s (hover to see current wind gust speed)